Flag for Mexico Weather past 2 weeks in Playa del Carmen, Quintana Roo, Mexico

Now
81 °F

Scattered clouds.


Feels Like: 87 °F
Forecast: 81 / 88 °F
Wind: 5 mph from Southeast

Location: Cozumel Civ / Mil

Current Time: Oct 1, 2014 at 9:52:34 AM

Latest Report: Oct 1, 2014 at 8:46 AM


Visibility: 8 mi

Pressure: 29.93 "Hg

Humidity: 89%

Dew point: 77 °F

Location of Playa del CarmenLocation

Historic Weather in Playa del Carmen — Graph

°F

Playa del Carmen temperature yesterday

Maximum temperature yesterday: 84 °F (at 3:46 PM)
Minimum temperature yesterday: 70 °F (at 6:46 AM)
Average temperature yesterday: 77 °F

Past Weeks' High & Low Weather Summary

 TemperatureHumidityPressure
High86 °F (Sep 16, 12:54 PM)100% (Sep 16, 9:46 PM)30.06 "Hg (Sep 16, 9:46 PM)
Low68 °F (Sep 18, 5:53 AM)66% (Sep 18, 1:43 PM)29.81 "Hg (Sep 27, 4:49 PM)
Average77 °F93%29.91 "Hg
* Reported Sep 16 8:46 AM — Oct 1 8:46 AM, Playa del Carmen, Weather by CustomWeather, © 2014

Note: Actual official high and low records may vary slightly from our data, if they occured in-between our weather recording intervals... More about our weather records

Advertising

Playa del Carmen weather history for previous 24 hours

 ConditionsComfort  
Time TempWeatherWind HumidityBarometerVisibility
8:46 AM
Oct 1
81 °FScattered clouds.5 mph89%29.93 "Hg8 mi
7:40 AM73 °FScattered clouds.No wind100%29.91 "Hg8 mi
6:54 AM70 °FPassing clouds.No wind100%29.88 "Hg7 mi
5:50 AM70 °FClear.No wind100%29.89 "Hg7 mi
4:46 AM72 °FClear.No wind100%29.87 "Hg7 mi
3:45 AM73 °FClear.No wind100%29.88 "Hg7 mi
2:41 AM72 °FClear.No wind100%29.86 "Hg7 mi
1:49 AM72 °FClear.No wind100%29.87 "Hg7 mi
12:42 AM72 °FClear.No wind100%29.85 "Hg7 mi
11:47 PM
Sep 30
73 °FClear.No wind100%29.88 "Hg7 mi
10:53 PM73 °FClear.No wind100%29.89 "Hg7 mi
9:44 PM73 °FClear.No wind100%29.91 "Hg7 mi
8:46 PM75 °FClear.No wind100%29.88 "Hg7 mi
7:46 PM75 °FClear.5 mph100%29.85 "Hg7 mi
6:47 PM79 °FSunny.3 mph94%29.81 "Hg8 mi
5:48 PM81 °FPassing clouds.6 mph84%29.82 "Hg8 mi
4:40 PM82 °FPassing clouds.6 mph79%29.82 "Hg10 mi
3:46 PM84 °FScattered clouds.6 mph79%29.84 "Hg10 mi
2:51 PM82 °FScattered clouds.No wind84%29.84 "Hg10 mi
1:44 PM82 °FPartly sunny.9 mph84%29.87 "Hg8 mi
12:44 PM82 °FPartly sunny.6 mph84%29.87 "Hg8 mi
11:45 AM81 °FPartly sunny.6 mph94%29.91 "Hg8 mi
10:45 AM82 °FPartly sunny.No wind79%29.92 "Hg8 mi
9:51 AM82 °FPartly sunny.9 mph84%29.94 "Hg8 mi
Weather by CustomWeather, © 2014

See weather overviewHow to use our weather pages